Weather History for Huntsville Madison, AL

Change the Weather History Date:

Saturday, January 19, 2013

  Actual Average (KHSV) Record (KHSV)
Temperature  
Mean Temperature 40 °F 41 °F  
Max Temperature 53 °F 51 °F 72 °F (1982)
Min Temperature 28 °F 32 °F -2 °F (1940)
Degree Days  
Heating Degree Days 24 24  
Month to date heating degree days 456  
Since 1 July heating degree days 1637  
Cooling Degree Days 0 0  
Month to date cooling degree days 0  
Year to date cooling degree days 0  
Moisture  
Dew Point 27 °F    
Average Humidity 63    
Maximum Humidity 93    
Minimum Humidity 28    
Precipitation  
Precipitation 0.00 in 0.16 in 3.35 in (1988)
Month to date precipitation 3.02  
Year to date precipitation 3.02  
Snow  
Snow 0.00 in - - ()
Month to date snowfall  
Since 1 July snowfall  
Snow Depth -    
Sea Level Pressure  
Sea Level Pressure 30.31 in    
Wind  
Wind Speed 3 mph (SSW)    
Max Wind Speed 15 mph    
Max Gust Speed 21 mph    
Visibility 10 miles    
Events      
T = Trace of Precipitation, MM = Missing Value Source: NWS Daily Summary

Daily Weather History Graph

Daily Weather History Graph

Search for Another Location

Airport:

Trip Planner

Search our weather history database for the weather conditions in past years. The results will help you decide how hot, cold, wet, or windy it might be!

Date:

Astronomy

Jan. 19, 2013 Rise Set
Actual Time 6:52 AM CST 5:02 PM CST
Civil Twilight 6:24 AM CST 5:29 PM CST
Nautical Twilight 5:53 AM CST 6:00 PM CST
Astronomical Twilight 5:23 AM CST 6:30 PM CST
Moon 11:25 AM CST (1/19) 12:29 AM CST (1/19)
Length of Visible Light 11h 04m
Length of Day
10h 10m
First Quarter, 57% of the Moon is Illuminated
Jan 19
First Quarter
Jan 26
Full
Feb 3
Last Quarter
Feb 10
New
Feb 17
First Quarter

Hourly Weather History & Observations

Time (CST) Temp. Windchill Dew Point Humidity Pressure Visibility Wind Dir Wind Speed Gust Speed Precip Events Conditions
12:15 AM 32.0 °F - 28.4 °F 87% 30.40 in 10.0 mi Calm Calm - N/A   Clear
12:35 AM 32.0 °F - 26.6 °F 80% 30.40 in 10.0 mi Calm Calm - N/A   Clear
12:55 AM 32.0 °F - 26.6 °F 80% 30.39 in 10.0 mi Calm Calm - N/A   Clear
1:15 AM 32.0 °F - 26.6 °F 80% 30.41 in 10.0 mi Calm Calm - N/A   Clear
1:35 AM 32.0 °F 27.5 °F 26.6 °F 80% 30.40 in 10.0 mi South 4.6 mph - N/A   Clear
1:55 AM 32.0 °F - 26.6 °F 80% 30.40 in 10.0 mi Calm Calm - N/A   Clear
2:15 AM 32.0 °F 28.7 °F 28.4 °F 87% 30.40 in 10.0 mi South 3.5 mph - N/A   Clear
2:35 AM 32.0 °F - 26.6 °F 80% 30.40 in 10.0 mi Calm Calm - N/A   Clear
2:55 AM 30.2 °F - 26.6 °F 86% 30.39 in 10.0 mi Calm Calm - N/A   Clear
3:15 AM 28.4 °F - 26.6 °F 93% 30.40 in 10.0 mi Calm Calm - N/A   Clear
3:35 AM 30.2 °F - 26.6 °F 86% 30.39 in 10.0 mi Calm Calm - N/A   Clear
3:55 AM 28.4 °F - 26.6 °F 93% 30.38 in 10.0 mi Calm Calm - N/A   Clear
4:15 AM 28.4 °F - 26.6 °F 93% 30.38 in 10.0 mi Calm Calm - N/A   Clear
4:35 AM 30.2 °F - 28.4 °F 93% 30.38 in 10.0 mi Calm Calm - N/A   Clear
4:55 AM 30.2 °F - 26.6 °F 86% 30.38 in 10.0 mi Calm Calm - N/A   Clear
5:15 AM 30.2 °F - 26.6 °F 86% 30.38 in 10.0 mi Calm Calm - N/A   Clear
5:35 AM 30.2 °F - 26.6 °F 86% 30.38 in 10.0 mi Calm Calm - N/A   Clear
5:55 AM 30.2 °F - 26.6 °F 86% 30.38 in 10.0 mi Calm Calm - N/A   Clear
7:15 AM 30.2 °F - 23.0 °F 75% 30.39 in 10.0 mi Calm Calm - N/A   Clear
7:55 AM 32.0 °F - 28.4 °F 87% 30.39 in 10.0 mi Calm Calm - N/A   Clear
8:15 AM 33.8 °F 29.6 °F 30.2 °F 87% 30.39 in 10.0 mi SSE 4.6 mph - N/A   Clear
8:35 AM 39.2 °F 37.0 °F 28.4 °F 65% 30.40 in 10.0 mi SSE 3.5 mph - N/A   Clear
8:55 AM 41.0 °F - 28.4 °F 61% 30.40 in 10.0 mi Calm Calm - N/A   Clear
9:35 AM 44.6 °F 42.2 °F 28.4 °F 53% 30.41 in 10.0 mi South 4.6 mph - N/A   Clear
9:55 AM 46.4 °F 42.9 °F 28.4 °F 50% 30.41 in 10.0 mi South 6.9 mph - N/A   Clear
10:15 AM 46.4 °F 42.9 °F 26.6 °F 46% 30.40 in 10.0 mi South 6.9 mph - N/A   Clear
10:35 AM 48.2 °F - 21.2 °F 34% 30.39 in 10.0 mi South 15.0 mph 20.7 mph N/A   Clear
11:15 AM 50.0 °F - 23.0 °F 35% 30.36 in 10.0 mi South 10.4 mph 16.1 mph N/A   Clear
11:35 AM 50.0 °F - 23.0 °F 35% 30.34 in 10.0 mi SSW 11.5 mph - N/A   Clear
11:55 AM 51.8 °F - 23.0 °F 33% 30.33 in 10.0 mi SSW 13.8 mph 19.6 mph N/A   Clear
12:15 PM 51.8 °F - 23.0 °F 33% 30.31 in 10.0 mi South 12.7 mph 18.4 mph N/A   Clear
12:35 PM 51.8 °F - 23.0 °F 33% 30.30 in 10.0 mi SSW 15.0 mph - N/A   Clear
12:55 PM 51.8 °F - 23.0 °F 33% 30.29 in 10.0 mi South 8.1 mph - N/A   Clear
1:15 PM 53.6 °F - 23.0 °F 30% 30.28 in 10.0 mi SSW 15.0 mph - N/A   Clear
1:55 PM 53.6 °F - 23.0 °F 30% 30.26 in 10.0 mi SW 11.5 mph - N/A   Clear
2:35 PM 53.6 °F - 23.0 °F 30% 30.25 in 10.0 mi SW 9.2 mph - N/A   Clear
2:55 PM 53.6 °F - 21.2 °F 28% 30.24 in 10.0 mi South 10.4 mph - N/A   Clear
3:15 PM 53.6 °F - 21.2 °F 28% 30.24 in 10.0 mi SW 9.2 mph - N/A   Clear
3:35 PM 51.8 °F - 21.2 °F 30% 30.24 in 10.0 mi SW 10.4 mph 16.1 mph N/A   Clear
3:55 PM 51.8 °F - 23.0 °F 33% 30.24 in 10.0 mi SW 8.1 mph - N/A   Clear
4:15 PM 51.8 °F - 24.8 °F 35% 30.24 in 10.0 mi SW 5.8 mph - N/A   Clear
4:35 PM 51.8 °F - 24.8 °F 35% 30.24 in 10.0 mi SW 9.2 mph - N/A   Clear
4:55 PM 50.0 °F - 26.6 °F 40% 30.23 in 10.0 mi SSW 5.8 mph - N/A   Clear
5:15 PM 46.4 °F 44.3 °F 26.6 °F 46% 30.23 in 10.0 mi SSW 4.6 mph - N/A   Clear
5:35 PM 46.4 °F 43.5 °F 26.6 °F 46% 30.23 in 10.0 mi SSW 5.8 mph - N/A   Clear
5:55 PM 46.4 °F - 26.6 °F 46% 30.23 in 10.0 mi Calm Calm - N/A   Clear
6:15 PM 46.4 °F - 26.6 °F 46% 30.23 in 10.0 mi Calm Calm - N/A   Clear
6:35 PM 44.6 °F - 26.6 °F 49% 30.23 in 10.0 mi Calm Calm - N/A   Clear
6:55 PM 42.8 °F 40.1 °F 26.6 °F 53% 30.23 in 10.0 mi SSE 4.6 mph - N/A   Clear
7:15 PM 42.8 °F - 28.4 °F 57% 30.23 in 10.0 mi Calm Calm - N/A   Clear
7:35 PM 41.0 °F 37.1 °F 28.4 °F 61% 30.22 in 10.0 mi South 5.8 mph - N/A   Clear
7:55 PM 42.8 °F 40.1 °F 26.6 °F 53% 30.22 in 10.0 mi South 4.6 mph - N/A   Clear
8:15 PM 35.6 °F - 30.2 °F 81% 30.22 in 10.0 mi Calm Calm - N/A   Clear
8:35 PM 35.6 °F - 30.2 °F 81% 30.22 in 10.0 mi Calm Calm - N/A   Clear
8:55 PM 37.4 °F - 30.2 °F 75% 30.22 in 10.0 mi Calm Calm - N/A   Clear
9:15 PM 39.2 °F 35.9 °F 28.4 °F 65% 30.22 in 10.0 mi South 4.6 mph - N/A   Clear
9:35 PM 33.8 °F - 32.0 °F 93% 30.23 in 10.0 mi Calm Calm - N/A   Clear
9:55 PM 33.8 °F - 30.2 °F 87% 30.23 in 10.0 mi Calm Calm - N/A   Clear
10:15 PM 39.2 °F - 28.4 °F 65% 30.22 in 10.0 mi Calm Calm - N/A   Clear
10:35 PM 35.6 °F - 32.0 °F 87% 30.22 in 10.0 mi Calm Calm - N/A   Clear
10:55 PM 35.6 °F - 30.2 °F 81% 30.22 in 10.0 mi Calm Calm - N/A   Clear
11:15 PM 33.8 °F - 30.2 °F 87% 30.22 in 10.0 mi Calm Calm - N/A   Clear
11:35 PM 33.8 °F - 30.2 °F 87% 30.22 in 10.0 mi Calm Calm - N/A   Clear
11:55 PM 33.8 °F - 30.2 °F 87% 30.22 in 10.0 mi Calm Calm - N/A   Clear